Location: Waco, TX
(31.5480°N, 97.1670°W)
Time: 00:27:50
(UTC-05:00)

ISS - Pass Details

Date: 18 October 2018
Orbit: 403 x 408 km, 51.6° (Epoch: 21 October)

Event Time Altitude Azimuth Distance (km) Brightness Sun altitude
Rises 17:59:24 0° 311° (NW) 2,330 0.5 10.3°
Reaches altitude 10° 18:01:31 10° 308° (NW) 1,467 -0.4 9.8°
Maximum altitude 18:04:45 60° 228° (SW) 471 -2.9 9.2°
Drops below altitude 10° 18:07:59 10° 147° (SSE) 1,458 -1.1 8.5°
Sets 18:10:04 0° 144° (SE) 2,314 -0.2 8.1°
